Starlink 4711

operational
NORAD ID: 53701 Int'l Des: 2022-107 Owner: SPXS Country: US Constellation: starlink
LEOCIRCULAR

关于 Starlink 4711

正在加载描述...

实时位置

正在加载3D地球...

即将过境

高度历史

Altitude vs Time

uPlot chart will show altitude changes over time

两行轨道根数

1 53701U 22107B 25305.14404102 -.00000649 00000-0 -22681-4 0 9993
2 53701 53.2174 100.7707 0001479 85.2097 274.9065 15.08838801175451
Epoch: Nov 1, 2025 • Age: 31 hours

当前状态

高度 549.0 km
速度 7.59 km/s
星下点 -28.61°S, 97.64°E
发射日期 Sep 5, 2022
运行时间 3.1 years
类型 internet

技术详情

分类 Payload
质量 305.00 kg
干质量 290.00 kg
总质量 305.00 kg
长度 0.20 m
直径 2.80 m
跨度 9.00 m
形状 Box + pan
制造商 SPXS
平台类型 Starlink
阶段状态 In Orbit
所有者/国家 SPXS/US

大型星座

Loading constellations...